Kezdőlap
METAR-TAF:

METAR-TAF

Repülőterek :

Austin, Minnesota, Amerikai Egyesült Államok

földrajzi szélesség: 43-40N, földrajzi hosszúság: 092-56W, magasság: 375 m

Jelenlegi meteorológiai megfigyelések

A jelentés 15 perccel ezelõtt készült, 23:42 UTC
Déli szél 8 kt
Hőmérséklet 3°C
Páratartalom 81%
Légköri nyomás 1013 hPa
Látótávolság: 16.1 km
Derült ég

METAR: KAUM 222342Z AUTO 19008KT 10SM CLR 03/00 A2990 RMK AO2

Idő: 17:57 (23:57 UTC)


TAF: hiányzik

Meteorológiai megfigyelések és előrejelzések több, mint 4000 repülőtéren (METAR és TAF jelentéseket).

A térképen piros és sárga pontok jelzik az elérhető meteorológiai állomásokat.

Mozgassa az egeret a pont fölött, hogy megjelenjen az állomás neve.

Azután kattintson az időjárási megfigyelések és előrejelzések megtekintéséhez.

A térkép megváltoztatása: kattintson a fekete keresztel jelölt zöld gombra ráközelítéshez, a vonallal jelölt zöld gombra távolításhoz, vagy a zöld nyilakra a szomszédos térképek eléréséhez.


METAR-TAF: